Location: Gollag?dem
(17.0207°N, 80.7261°E)
Time: 23:58:24
(UTC+00:00)

Cosmos 1624 Rocket - Pass Details

Date: 03 August 2024
Orbit: 754 x 781 km, 74.0° (Epoch: 18 September)

Event Time Altitude Azimuth Distance (km) Brightness Sun altitude
Exits shadow 14:33:53 35° 145° (SE) 1,215 4.6 -19.7°
Maximum altitude 14:35:28 45° 101° (E) 1,024 4.2 -20.0°
Drops below altitude 10° 14:40:25 10° 29° (NNE) 2,297 6.4 -21.1°
Sets 14:42:52 0° 24° (NNE) 3,228 7.3 -21.6°
